Regional Weather Roundup
Issued by NWS

Home | Current Version | Previous Version | Text Only | Print | Product List | Glossary On
Versions: 1 2 3 4 5 6 7 8 9 10 11 12 13 14 15 16 17 18 19 20 21 22 23 24 25 26 27 28 29 30 31 32 33 34 35 36 37 38 39 40 41 42 43 44 45 46 47 48 49 50
000
ASUS44 KEWX 032202
RWRTX
SOUTH TEXAS REGIONAL WEATHER ROUNDUP
NATIONAL WEATHER SERVICE AUSTIN/SAN ANTONIO TX
400 PM CST TUE MAR 03 2015

NOTE: "FAIR" INDICATED FEW OR NO CLOUDS BELOW 12,000 FEET WITH NO
SIGNIFICANT WEATHER AND/OR OBSTRUCTIONS TO VISIBILITY.

* - THESE STATIONS ARE NOT NWS OR FAA STATIONS...AND ARE NOT SUBJECT
    TO NWS AND FAA QUALITY CONTROL.

TXZ171-172-183>190-032300-
TEXAS HILL COUNTRY AND EDWARDS PLATEAU

CITY           SKY/WX    TMP DP  RH WIND       PRES   REMARKS
JUNCTION       SUNNY     69  55  60 SW9       29.79F
*LLANO         CLOUDY    72  61  68 S15       29.83F
BURNET         CLOUDY    63  58  83 S10G18    29.84F
*HORSESHOE BAY CLOUDY    69  59  69 S7        29.82F
*KERRVILLE     CLOUDY    60  57  88 S8        29.84F
*FREDERICKSBRG CLOUDY    61  56  83 S13G24    29.84S
*ROCKSPRINGS   CLOUDY    59  54  82 S9        29.84F
*BOERNE STAGE  CLOUDY    57  55  94 S6        29.85F
*CASTROVILLE   CLOUDY    58  56  92 CALM      29.86F FOG
HONDO          CLOUDY    57  54  89 SE3       29.86F FOG
*UVALDE        CLOUDY    57  54  88 E6        29.84F
DEL RIO        PTSUNNY   60  50  69 SE7       29.80F
LAUGHLIN AFB   CLOUDY    58  54  84 SE6       29.80F
CARRIZO SPRGS  CLOUDY    59  54  82 SE9       29.81F
$$

TXZ173-191>194-202-209-217>225-228-032300-
CENTRAL AND SOUTH CENTRAL TEXAS

CITY           SKY/WX    TMP DP  RH WIND       PRES   REMARKS
GEORGETOWN     CLOUDY    57  57 100 S9        29.85S FOG
AUSTIN/BERGSTM FOG       57  57 100 S8        29.86S VSB 3/4
AUSTIN/MABRY   CLOUDY    59  58  96 VRB5      29.86F FOG
*AUSTIN/EXEC   FOG       57  57 100 S7        29.87S VSB 1/4
*LAGO VISTA    CLOUDY    61  59  94 S7G17     29.85S
SAN MARCOS     FOG       57  55  94 S9        29.87F VSB 1
NEW BRAUNFELS  CLOUDY    59  56  89 SW6       29.85F FOG
RANDOLPH AFB   CLOUDY    58  56  92 SE3       29.85F FOG
PT SAN ANTONIO CLOUDY    58  57  99 SE2       29.84S FOG
SAN ANTONIO    CLOUDY    59  56  89 E3        29.86F FOG
STINSON FIELD  CLOUDY    58  55  90 CALM      29.84F
*PLEASANTON    CLOUDY    58  55  87 CALM      29.85F
*LA GRANGE     PTSUNNY   74  67  78 S15       29.83S
*GIDDINGS      CLOUDY    71  64  78 SW10G18   29.87F
*GONZALES      CLOUDY    64  64  97 W5        29.85F FOG
$$

TXZ163>164-176>182-195>201-210>213-226-227-235-032300-
SOUTHEAST TEXAS

CITY           SKY/WX    TMP DP  RH WIND       PRES   REMARKS
COLLEGE STN    CLOUDY    75  63  66 S15       29.84S
*BRYAN         CLOUDY    74  64  71 S13       29.85S
*CALDWELL      CLOUDY    72  68  88 SW9       29.87F
*CROCKETT      MOSUNNY   75  68  78 S8        29.88F
*BRENHAM       MOSUNNY   77  66  69 S15G25    29.85S
HUNTSVILLE     PTSUNNY   76  65  68 S14G20    29.85F
CONROE         PTSUNNY   75  62  64 S20       29.87F
HOUSTON BUSH   PTSUNNY   79  63  57 S12G22    29.87F
HOUSTON HOBBY  PTSUNNY   78  65  63 S17G26    29.87F
*HOUSTON SW AP MOSUNNY   77  66  68 MISG      29.88F
PEARLAND       MOSUNNY   77  66  68 S18G25    29.90F
HOUSTON HOOKS  PTSUNNY   79  63  57 S15G23    29.86F
ELLINGTON FLD  MOSUNNY   77  66  69 S17G23    29.89F
SUGAR LAND     MOSUNNY   77  64  64 S17G23    29.86F
*HOUSTON EXEC  PTSUNNY   77  64  65 S21       29.87S
*CLEVELAND MUN   N/A     75  66  73 S13G23    29.88F
*WHARTON       MOSUNNY   77  66  68 S22       29.88R
*COLUMBUS      FAIR      77  66  70 S14G23    29.84F
$$

TXZ214>216-236>238-032300-
THE UPPER TEXAS COAST

CITY           SKY/WX    TMP DP  RH WIND       PRES   REMARKS
*ORANGE        PTSUNNY   75  67  76 S14G20    29.95S
PORT ARTHUR    PTSUNNY   78  66  66 S14G23    29.92F
GALVESTON      MOSUNNY   69  66  90 S14       29.92F FOG
ANGLETON       MOSUNNY   74  66  76 S21G30    29.88F
*BAY CITY      PTSUNNY   77  69  76 S18G26    29.88F
PALACIOS       SUNNY     73  67  81 S16G24    29.87F
$$

TXZ229>234-239>247-032300-
TEXAS COASTAL BEND AND RIO GRANDE PLAINS

CITY           SKY/WX    TMP DP  RH WIND       PRES   REMARKS
VICTORIA       MOSUNNY   76  66  71 S23G29    29.85S
*BEEVILLE      NOT AVBL
ROCKPORT       CLOUDY    69  65  86 S7        29.85F FOG
*PORT ARANSAS  FOG       64  63  97 S8        29.85F VSB 1/4
*PORT LAVACA   PTSUNNY   75  67  76 S20       29.86F
*INGLESIDE     CLOUDY    53  50  90 S13G18    29.84F
CORPUS CHRISTI CLOUDY    64  62  93 NW5       29.84F FOG
CORPUS NAS     FOG       67  66  97 S10       29.84F VSB 1/2
*ROBSTOWN      CLOUDY    63  63  99 CALM      29.85F FOG
ALICE          CLOUDY    63  59  87 S3        29.83F
KINGSVILLE NAS CLOUDY    65  63  93 N3        29.83F FOG
COTULLA        CLOUDY    60  55  83 SE5       29.83F
*FAITH RANCH   CLOUDY    64  55  72 SE12      29.81F
LAREDO         CLOUDY    66  58  75 SE10      29.82F
$$

TXZ248>255-032300-
DEEP SOUTH TEXAS

CITY           SKY/WX    TMP DP  RH WIND       PRES   REMARKS
BROWNSVILLE    PTSUNNY   77  68  73 SE20      29.83F
PORT ISABEL    MOSUNNY   76  68  76 S22G30    29.82F
*SOUTH PADRE   SUNNY     68  66  94 S12       29.84F
HARLINGEN      MOSUNNY   81  66  60 S24G35    29.80F
*HEBBRONVILLE  CLOUDY   N/A N/A N/A SE9       29.83F
MCALLEN        MOSUNNY   83  65  54 SE18G31   29.77F
*WESLACO       SUNNY     79  63  58 S26G33    29.79F
FALFURRIAS     CLOUDY    64  61  88 CALM      29.83F
EDINBURG       MOSUNNY   82  64  52 S17G25    29.78F
*ZAPATA        CLOUDY    68  60  75 SE12      29.81F
$$

TXZ213>215-236>238-242>244-246-247-251-254-255-032300-
CMAN STATIONS

STATION/POSITION TIME  TEMP    WIND        PRES    WAVE
                       AIR SEA DIR/SP/G            HT/PER
                 (UTC) (F)     (DEG/KT/KT) (MB)    (FT/S)
$$

GMZ080-GMZ150>470-032300-
OFFSHORE BUOY REPORTS

STATION/POSITION TIME  TEMP    WIND        PRES    WAVE
                       AIR SEA DIR/SP/G            HT/PER
                 (UTC) (F)     (DEG/KT/KT) (MB)    (FT/S)
$$


USA.gov is the U.S. government's official web portal to all federal, state and local government web resources and services.